TimeMDT,TemperatureF,Dew PointF,Humidity,Sea Level PressureIn,VisibilityMPH,Wind Direction,Wind SpeedMPH,Gust SpeedMPH,PrecipitationIn,Events,Conditions,WindDirDegrees,DateUTC
12:53 AM,64.0,61.0,90,30.05,10.0,West,3.5,-,N/A,,Clear,270,2013-07-30 06:53:00
1:53 AM,66.9,57.9,73,30.05,10.0,NW,6.9,-,N/A,,Clear,310,2013-07-30 07:53:00
2:53 AM,64.9,59.0,81,30.03,10.0,SSE,6.9,-,N/A,,Clear,150,2013-07-30 08:53:00
3:53 AM,64.0,59.0,84,30.04,10.0,Calm,Calm,-,N/A,,Clear,0,2013-07-30 09:53:00
4:53 AM,64.0,57.9,80,30.03,10.0,SE,4.6,-,N/A,,Clear,130,2013-07-30 10:53:00
5:53 AM,63.0,59.0,87,30.04,10.0,Calm,Calm,-,N/A,,Partly Cloudy,0,2013-07-30 11:53:00
6:53 AM,64.9,59.0,81,30.07,10.0,Calm,Calm,-,N/A,,Clear,0,2013-07-30 12:53:00
7:53 AM,69.1,60.1,73,30.08,10.0,WSW,3.5,-,N/A,,Clear,250,2013-07-30 13:53:00
8:53 AM,71.1,60.1,68,30.08,10.0,Calm,Calm,-,N/A,,Partly Cloudy,0,2013-07-30 14:53:00
9:53 AM,75.9,59.0,56,30.06,10.0,Calm,Calm,-,N/A,,Clear,0,2013-07-30 15:53:00
10:53 AM,82.9,59.0,44,30.03,10.0,SW,9.2,-,N/A,,Clear,230,2013-07-30 16:53:00
11:53 AM,86.0,59.0,40,30.02,10.0,SW,5.8,-,N/A,,Clear,230,2013-07-30 17:53:00
12:53 PM,90.0,51.1,26,29.99,10.0,SW,15.0,20.7,N/A,,Clear,230,2013-07-30 18:53:00
1:53 PM,91.9,48.0,22,29.96,10.0,WSW,8.1,24.2,N/A,,Clear,240,2013-07-30 19:53:00
2:53 PM,93.9,46.9,20,29.94,10.0,WSW,11.5,20.7,N/A,,Scattered Clouds,250,2013-07-30 20:53:00
3:53 PM,93.9,46.0,19,29.93,10.0,WNW,12.7,18.4,N/A,,Clear,290,2013-07-30 21:53:00
4:53 PM,95.0,46.0,19,29.91,10.0,WNW,8.1,-,N/A,,Clear,300,2013-07-30 22:53:00
5:53 PM,93.0,39.9,16,29.93,10.0,NW,10.4,-,N/A,,Clear,310,2013-07-30 23:53:00
6:49 PM,84.2,53.6,35,30.10,10.0,NNW,10.4,20.7,N/A,Thunderstorm,Partly Cloudy,330,2013-07-31 00:49:00
6:53 PM,82.9,53.1,36,30.07,10.0,NW,26.5,39.1,N/A,Thunderstorm,Thunderstorm,310,2013-07-31 00:53:00
7:05 PM,62.6,57.2,82,30.17,1.5,NW,41.4,66.7,0.04,Rain-Thunderstorm,Light Thunderstorms and Rain,310,2013-07-31 01:05:00
7:11 PM,60.8,55.4,82,30.17,0.2,NNW,27.6,59.8,0.28,Rain-Thunderstorm,Heavy Thunderstorms and Rain,340,2013-07-31 01:11:00
7:20 PM,60.8,57.2,88,30.14,1.0,North,25.3,34.5,0.37,Rain-Thunderstorm,Heavy Thunderstorms and Rain,360,2013-07-31 01:20:00
7:27 PM,62.6,57.2,82,30.15,3.0,North,17.3,33.4,0.38,Rain-Thunderstorm,Light Thunderstorms and Rain,360,2013-07-31 01:27:00
7:50 PM,64.4,57.2,77,30.15,10.0,NE,17.3,29.9,0.38,,Partly Cloudy,50,2013-07-31 01:50:00
7:53 PM,64.0,57.9,80,30.11,10.0,ENE,15.0,27.6,0.38,,Partly Cloudy,60,2013-07-31 01:53:00
8:02 PM,64.4,57.2,77,30.14,10.0,NE,10.4,20.7,N/A,,Clear,40,2013-07-31 02:02:00
8:53 PM,64.0,59.0,84,30.08,10.0,ESE,11.5,-,N/A,,Clear,120,2013-07-31 02:53:00
9:53 PM,64.0,60.1,87,30.12,10.0,NW,4.6,-,N/A,,Clear,320,2013-07-31 03:53:00
10:53 PM,63.0,60.1,90,30.14,10.0,NNW,4.6,-,N/A,,Clear,330,2013-07-31 04:53:00
11:53 PM,63.0,61.0,93,30.16,10.0,Calm,Calm,-,N/A,,Clear,0,2013-07-31 05:53:00